Hauptseite
METAR-TAF:

METAR-TAF

Flughäfen :

Bohrplattform

Euro, Niederlande

Breite: 51-59-52N, Länge: 3-16-30E, Höhe: 18 m

Beobachtung

Neuester Wetterbericht von vor 42 Minuten, um 03:55 UTC
Wind 14 kt aus Süd/Südost
Temperatur 7°C
Luftfeuchtigkeit 87%
Luftdruck 1020 hPa
Sichtweite 10 km oder mehr

METAR: EHSA 170355Z AUTO 15014KT 9999 ///////// 07/05 Q1020 W05/H3

Zeit: 05:37 (04:37 UTC)


TAF: fehlend

Wetterbeobachtungen und Prognosen von mehr als 4000 Flughäfen (METAR und TAF Bericht).

Die verfügbaren Stationen werden durch gelbe und rote Markierungen auf der Karte dargestellt.

Führen Sie die Maus auf sie, um den Namen der Station zu sehen.

Darauf klicken, um die Beobachtung von Wetterbeobachtungen und Prognosen zu sehen.

Um die Karte zu ändern : klicken Sie auf den grünen Tasten mit einem schwarzen Kreuz Zum Vergrößern, auf den grünen Button mit einem Gedankenstrich zu verkleinern, oder auf die grünen Pfeile für benachbarte Karten.


METAR-TAF: